THORAD AGENA D DEB, 4996

Orbit data source: Space-Track

THORAD AGENA D DEB, 4996 is space debris in SSO originally from a launch on Wed, 08 Apr 1970 UTC launched from the Air Force Western Test Range (AFWTR). Debris objects in space refer to the collection of defunct objects orbiting the Earth. Examples of debris include non-operational satellites, rocket bodies, and fragments generated from explosions, collisions, or faulty payload assembly.

Loading next visibility...
Identifier
4996, 1970-025HS
Orbit
SSO
Country
Flag of USUS
Related business
Manufacturer
Unknown
Mission
Spacecraft
Bus & Motor
Unknown
Mass
Unknown
Launch date (UTC)
1970-04-08 (56 years ago)
Launch vehicle
Unknown
Launch site
Air Force Western Test Range (AFWTR)
Object type
Payload
Rocket body
Debris
Shape & HBR
Unknown shape, 0.1 m
Radar Cross Section
Small (<0.1 m²)

Expand to show TLE details & history
Last TLE update: 10 hours ago

TLE from 10 hours ago
0 THORAD AGENA D DEB
1  4996U 70025HS  26036.25807228  .00004085  00000-0  22635-2 0  9990
2  4996 100.3365 136.9039 0069502  75.4121 285.4739 14.10710269799623
Epoch: 2026-02-05T06:11Z
TLE epoch observation values (Epoch: 2026-02-05T06:11:37.444Z)
Latitude
-0.00009°
Longitude
-91.41499°
Altitude
846.695 km
Speed
7.436 km/s
True Right ascension
09h 07m 36s
True Declination
0° 00' 00"
Sunlit
Object was in full shadow at epoch
Visualization orbit readout
Latitude
Unknown
Longitude
Unknown
Altitude
Unknown
Speed
Unknown
Apparent Right ascension
Unknown
Apparent Declination
Unknown
Sunlit
N/A
Visualization observer readout
Local Sidereal Time
18:06:30
Azimuth
Unknown
Elevation
Unknown
Doppler factor
Unknown
Orbital elements
Apogee altitude
904.464 km
Perigee altitude
803.931 km
Semi-major axis
7,232.335 km
Eccentricity
0.00695
Inclination
100.3365°
RAAN
136.9039°
Arg. of periapsis
75.4121°
True anomaly
284.70457°
Mean anomaly
285.4739°
Eccentric anomaly
285.08941°
Mean motion
3.52879 °/min
Orbital period
102.02 mins
BSTAR
0.0022635
Loading maneuver chart data...
Computing Atmospheric mass density...

Documentation

Showing up to 5 results
|